sat.trackr.live / text

‹ back to catalog

STARLINK-5797

NORAD 55784 · 2023-028AV

PAYLOAD ACTIVE UNKNOWN

§ Identity

Operator
Country
US
Launch date
2023-03-03
Launch site
AFWTR
Launch vehicle
Mass (kg)
RCS (m²)

Purposes: comms

External: N2YO · Heavens-Above · Gunter

§ Orbital elements

Epoch: 2026-05-25T04:00:03.998880Z

Period
96.11 min
Inclination
70.0013°
Eccentricity
0.0002495
Mean motion
14.98344769 rev/d
Perigee alt
570.3 km
Apogee alt
573.7 km
Semi-major
6,950.1 km
B*
-1.3927e-3
RAAN
11.7121°
Arg perigee
276.3393°
Mean anomaly
302.5781°
Rev number
580

§ Raw data

STARLINK-57971 55784U 23028AV  26145.16671295 -.00016677  00000+0 -13927-2 0  99912 55784  70.0013  11.7121 0002495 276.3393 302.5781 14.98344769  5802

JSON: /api/v1/satellites/55784 · /tle

For live sub-satellite position, see the globe view (requires WebGL).

§ Visibility from observer

Set your observer location to see the next 7 days of passes ≥ 10°. The values pass through the URL so the page stays shareable.

No JS? Fill the form by hand. The geolocation button needs JavaScript.